Portada
METAR-TAF:

METAR-TAF

Aeroports :

NWS Office

Majuro, Illes Marshall

latitud: 07-05N, longitud: 171-12E, altitud: 4 m

Observació

L'informe es va fer fa 27 minuts, a les 15:53 UTC
Vent 12 kt del Est/Nord-Est
Temperatura 28°C
Humitat 79%
Pressió 1006 hPa
Visibilitat: 24.1 km
Escasses núvols a una alçada de 1400 ft, Cumulus congestus.
Núvols disperses a una alçada de 5000 ft
Cel ennuvolat a una alçada de 12000 ft
Cel cobert a una alçada de 30000 ft

METAR: PKMR 081553Z 07012KT 15SM FEW014TCU SCT050 BKN120 OVC300 28/24 A2970 RMK TCU SE-S SLP061 T02760238

Hora: 04:20 (16:20 UTC)


TAF: manca

Observacions i pronòstics meteorològics de més de 4000 aeroports (METAR i TAF).

Les estacions disponibles són els punts grocs i vermells al mapa.

Posi el ratolí al punt desitjat per veure el nom de l'estació.

Feu clic per veure les observacions i els pronòstics meteorològics.

Per canviar el mapa: feu clic els botons verds amb una creu de color negre per apropar; al botó verd amb un guió per allunyar la imatge; o en les fletxes verdes per a mapes adjacents.


METAR-TAF: